Regional Weather Roundup
Issued by NWS

Home | Current Version | Previous Version | Graphics & Text | Print | Product List | Glossary On
Versions: 1 2 3 4 5 6 7 8 9 10 11 12 13 14 15 16 17 18 19 20 21 22 23 24 25 26 27 28 29 30 31 32 33 34 35 36 37 38 39 40 41 42 43 44 45 46 47 48 49 50
000
ASUS43 KMKX 051711
RWRWI

WISCONSIN REGIONAL WEATHER ROUNDUP
NATIONAL WEATHER SERVICE MILWAUKEE/SULLIVAN WI
1200 PM CDT TUE MAY 05 2015

NOTE: "FAIR" INDICATES FEW OR NO CLOUDS BELOW 12,000 FEET WITH NO
SIGNIFICANT WEATHER AND/OR OBSTRUCTIONS TO VISIBILITY.

WIZ001-002-006>008-014>016-023>028-051800-
NORTHWEST WISCONSIN

CITY           SKY/WX    TMP DP  RH WIND       PRES   REMARKS
SUPERIOR ARPT  SUNNY     56  33  41 NE9       30.25F
ASHLAND        SUNNY     69  42  37 N10       30.27F
HAYWARD        SUNNY     68  29  23 VRB5G18   30.25F
SIREN          SUNNY     69  27  21 S16G23    30.24S
CUMBERLAND     SUNNY     64  18  16 E15G22    30.25S
RICE LAKE      SUNNY     68  17  14 E13       30.26S
CHETEK         SUNNY     66  25  21 SE16G24   30.26S
LADYSMITH      SUNNY     67  18  15 SE13G20   30.29S
EAU CLAIRE     MOSUNNY   68  28  22 SE12      30.24S
MENOMONIE      SUNNY     67  31  26 E15       30.24F
NEW RICHMOND   SUNNY     66  31  26 E10G18    30.22F
OSCEOLA        SUNNY     67  31  26 SE16G22   30.24F
$$

WIZ003>005-009-010-017-018-051800-
NORTH CENTRAL WISCONSIN

CITY           SKY/WX    TMP DP  RH WIND       PRES   REMARKS
MANITOWISH WTR SUNNY     65  32  29 E9        30.29F
ARBOR VITAE    SUNNY     65  31  27 SE5G17    30.28F
WOODRUFF       SUNNY     65  31  27 SE5G17    30.28F
RHINELANDER    SUNNY     66  30  26 SE10G17   30.30F
EAGLE RIVER    SUNNY     65  28  24 E9        30.29F
LAND O LAKES   SUNNY     66  18  15 SE5       30.30F
PHILLIPS       SUNNY     65  26  23 E9        30.27F
TOMAHAWK       SUNNY     66  25  20 CALM      30.30S
MEDFORD        SUNNY     64  24  21 E9G22     30.28F
MERRILL          N/A    N/A N/A N/A MISG        N/A
$$

WIZ029-030-035-036-043>047-051800-
CENTRAL WISCONSIN

CITY           SKY/WX    TMP DP  RH WIND       PRES   REMARKS
WAUSAU         SUNNY     66  17  15 SE18      30.28F
MOSINEE        SUNNY     64  21  19 E12G18    30.30F
MARSHFIELD     SUNNY     65  28  24 SE17      30.28F
STEVENS POINT  SUNNY     63  21  20 E16       30.30S
WAUPACA        PTSUNNY   65  32  30 E7        30.31F
WAUTOMA        PTSUNNY   59  38  45 E8        30.31S
WISC RAPIDS    NOT AVBL
CAMP DOUGLAS   CLOUDY    55  45  67 SE7       30.28S
$$

WIZ011>013-019>022-031-037>040-048>050-051800-
NORTHEAST WISCONSIN

CITY           SKY/WX    TMP DP  RH WIND       PRES   REMARKS
ANTIGO         SUNNY     62  30  29 SE13G23   30.32S
SHAWANO        SUNNY     68  20  16 E13       30.32F
OCONTO         MOSUNNY   60  32  35 NE6       30.33F
STURGEON BAY   MOSUNNY   61  25  25 E10G16    30.36S
GREEN BAY      MOSUNNY   63  36  36 E10       30.32S
MANITOWOC      CLOUDY    54  37  52 CALM      30.34R
APPLETON       PTSUNNY   59  32  36 E8        30.32S
CLINTONVILLE   MOSUNNY   64  19  17 SE14G22   30.31S
OSHKOSH        CLOUDY    57  40  52 NE9       30.31S
$$

WIZ032>034-041-042-053>061-051800-
SOUTHWEST WISCONSIN

CITY           SKY/WX    TMP DP  RH WIND       PRES   REMARKS
LA CROSSE      LGT RAIN  55  51  86 SE7       30.25F
SPARTA         CLOUDY    58  42  57 E8        30.28S
VIROQUA        CLOUDY    49  49 100 E15       30.25F
BOSCOBEL       LGT RAIN  53  50  89 NE6       30.25F
PRAIRIE DU CHI DRIZZLE   51  50  95 E8        30.23F
PLATTEVILLE    CLOUDY    53  51  95 E17       30.23R
$$

WIZ056-057-062-063-064-067-068-051800-
SOUTH CENTRAL WISCONSIN

CITY           SKY/WX    TMP DP  RH WIND       PRES   REMARKS
REEDSBURG      DRIZZLE   51  48  91 E5        30.28S
BARABOO/DELLS  NOT AVBL
LONE ROCK      LGT RAIN  53  49  86 E14       30.27S
MINERAL POINT  CLOUDY    54  50  87 E16       30.24S
MADISON        LGT RAIN  52  49  89 E9        30.27F FOG
MIDDLETON      CLOUDY    53  50  92 E7        30.28S
WATERTOWN      CLOUDY    51  51  99 E10       30.29S
MONROE         CLOUDY    52  52 100 NE12      30.24F
JANESVILLE     CLOUDY    54  52  94 E15G21    30.26S
$$

WIZ051-052-058>065-066-070>072-051800-
SOUTHEAST WISCONSIN

CITY           SKY/WX    TMP DP  RH WIND       PRES   REMARKS
MILWAUKEE      LGT RAIN  47  44  90 NE10      30.31S FOG
WAUKESHA       LGT RAIN  48  46  93 E12       30.31R
MILWAUKEE/TIMM RAIN      48  43  81 E8G16     30.32R
RACINE         LGT RAIN  48  45  89 NE12      30.31R FOG
BURLINGTON     LGT RAIN  48  47  95 E10       30.28S
KENOSHA        LGT RAIN  48  46  93 E10       30.28S
FOND DU LAC    CLOUDY    57  43  59 E9        30.32R
SHEBOYGAN      CLOUDY    54  41  61 SE8       30.33R
WEST BEND      CLOUDY    50  45  81 E9        30.32S
JUNEAU         DRIZZLE   52  47  85 E12       30.31S
$$

LSZ147-162-051800-
LAKE SUPERIOR

STATION/POSITION TIME  TEMP    WIND        PRES    WAVE
                       AIR SEA DIR/SP/G            HT/PER
                 (UTC) (F)     (DEG/KT/KT) (MB)    (FT/S)
W MID LAKE BUOY  1650   43 36  110/  4/  4 1026.9F   0
DEVILS ISLAND    1700   50      70/ 10/ 11 1026.1F
PORT WING        1600   45      20/  9/ 10 1025.1F
SAXON HARBOR     1600   51        CALM     1025.4F
$$

LMZ867-665-643>646-051800-
LAKE MICHIGAN

STATION/POSITION TIME  TEMP    WIND        PRES    WAVE
                       AIR SEA DIR/SP/G            HT/PER
                 (UTC) (F)     (DEG/KT/KT) (MB)    (FT/S)
CHAMBERS ISLAND  1600   47     360/ 10/ 10 1027.8S
NORTHPORT PIER   1600   46     110/  4/  6 1027.8S
SISTER BAY       1502   57     100/ 13/ 18   N/A
KEWAUNEE LAKESHO 1600   45      30/ 12/ 15 1026.2R
SHEBOYGAN LAKESH 1700   44      30/  9/  9 1028.0R
PORT WASHINGTON  1600   47      40/  8/  9 1027.1
ATWATER BUOY     1500   45      40/  6/  8 1026.6R
MILWAUKEE LAKESH 1600   45      50/  8/  9   N/A
KENOSHA   LAKESH 1700   45      20/ 10/ 11 1025.1S
$$

TC  - TEMPERATURE IN CELSIUS
VSB - VISIBILITY IN STATUTE MILES
WCI - WIND CHILL INDEX
HX  - HEAT INDEX



USA.gov is the U.S. government's official web portal to all federal, state and local government web resources and services.